sat.trackr.live / text

‹ back to catalog

STARLINK-4522

NORAD 53388 · 2022-097A

PAYLOAD ACTIVE UNKNOWN

§ Identity

Operator
Country
US
Launch date
2022-08-10
Launch site
AFETR
Launch vehicle
Mass (kg)
RCS (m²)

Purposes: comms

External: N2YO · Heavens-Above · Gunter

§ Orbital elements

Epoch: 2026-09-19T19:05:47.889024Z

Period
93.79 min
Inclination
53.1613°
Eccentricity
0.0001429
Mean motion
15.35400568 rev/d
Perigee alt
458.8 km
Apogee alt
460.7 km
Semi-major
6,837.9 km
B*
2.1150e-5
RAAN
325.6727°
Arg perigee
42.7557°
Mean anomaly
317.3557°
Rev number
22,824

§ Raw data

STARLINK-45221 53388U 22097A   26262.79569316  .00000357  00000+0  21150-4 0  99982 53388  53.1613 325.6727 0001429  42.7557 317.3557 15.35400568228242

JSON: /api/v1/satellites/53388 · /tle

For live sub-satellite position, see the globe view (requires WebGL).

§ Visibility from observer

Set your observer location to see the next 7 days of passes ≥ 10°. The values pass through the URL so the page stays shareable.

No JS? Fill the form by hand. The geolocation button needs JavaScript.